sat.trackr.live / text

‹ back to catalog

STARLINK-3901

NORAD 52574 · 2022-051AQ

PAYLOAD ACTIVE UNKNOWN

§ Identity

Operator
Country
US
Launch date
2022-05-13
Launch site
AFWTR
Launch vehicle
Mass (kg)
RCS (m²)

Purposes: comms

External: N2YO · Heavens-Above · Gunter

§ Orbital elements

Epoch: 2026-09-20T03:18:01.511136Z

Period
92.06 min
Inclination
53.1589°
Eccentricity
0.0001995
Mean motion
15.64269150 rev/d
Perigee alt
374.0 km
Apogee alt
376.7 km
Semi-major
6,753.5 km
B*
2.6248e-4
RAAN
303.9634°
Arg perigee
63.8084°
Mean anomaly
296.3137°
Rev number
24,124

§ Raw data

STARLINK-39011 52574U 22051AQ  26263.13751749  .00025040  00000+0  26248-3 0  99942 52574  53.1589 303.9634 0001995  63.8084 296.3137 15.64269150241240

JSON: /api/v1/satellites/52574 · /tle

For live sub-satellite position, see the globe view (requires WebGL).

§ Visibility from observer

Set your observer location to see the next 7 days of passes ≥ 10°. The values pass through the URL so the page stays shareable.

No JS? Fill the form by hand. The geolocation button needs JavaScript.